Погода в Щебетовке

Россия / Республика Крым     44°56′11″N   35°09′19″E
темп.,
°C
ветер,
м/с
пор.,
м/с
влажн.,
%
обл.,
%
осадки,
мм/ч
давл.,
гПа
погр.,
м
17 мая, пн
пн1700:00+16юз339298 1.1 100232
03:00+15з22932 1.1 100133
06:00+14ююз489870 0.0 1002247
09:00+17юз458554 0.0 1004424
12:00+19з127599 0.1 1005724
15:00+19сз4574100 0.3 1006764
18:00+16ююз2283100 0.3 1007262
21:00+14ю349342 1.1 1009138
18 мая, вт
вт1800:00+13ююз479613 0.0 1009225
03:00+13юз499614 0.0 1008277
06:00+13юз5109220 0.0 1009340
09:00+17ююз7107717 0.0 1009550
12:00+18ю7116927 0.0 1009977
15:00+18ююз7107017 0.0 1008745
18:00+17ю688170 0.1 1007439
21:00+14юз2496100 1.4 1008162
19 мая, ср
ср1900:00+14юз4892100 0.6 1008287
03:00+13юз6991100 0.6 1008282
06:00+13зюз36820 0.3 1008128
09:00+17зюз712585 0.3 10101411
12:00+17юз8960100 0.1 10111556
15:00+16зюз7116687 0.2 10121209
18:00+17зюз696514 0.0 10131178
21:00+13юз34860 0.0 101453
20 мая, чт
чт2000:00+13юз44784 0.0 101470
03:00+12юз488935 0.0 1014184
06:00+12юз368578 0.0 1014130
09:00+18ю45585 0.0 1013549
12:00+19ююв565644 0.0 1013659
15:00+19юв575598 0.0 1012611
18:00+18юв36590 0.0 1011348
21:00+14ююв12651 0.0 101121
21 мая, пт
пт2100:00+15юв12725 0.0 101020
03:00+15сз116599 0.0 100913
06:00+14ссз335394 0.0 100936
09:00+20ссз44425 0.0 1010240
12:00+24ссз44425 0.0 1009594
15:00+24с66500 0.0 1009555
18:00+20ссз56645 0.0 1009282
21:00+16сз46765 0.0 100980